Weather History for Florence Mem AP, Arkadelphia,, AR

Change the Weather History Date:

Wednesday, February 26, 2014

  Actual Average Record
Temperature  
Mean Temperature 34 °F -  
Max Temperature 43 °F - - ()
Min Temperature 24 °F - - ()
Degree Days  
Heating Degree Days 30    
Moisture  
Dew Point 22 °F    
Average Humidity 59    
Maximum Humidity 89    
Minimum Humidity 34    
Precipitation  
Precipitation 0.02 in - - ()
Sea Level Pressure  
Sea Level Pressure 30.24 in    
Wind  
Wind Speed 7 mph (NNE)    
Max Wind Speed 16 mph    
Max Gust Speed -    
Visibility 10 miles    
Events Rain    
T = Trace of Precipitation, MM = Missing Value Source: NWS Daily Summary

Daily Weather History Graph

Daily Weather History Graph

Search for Another Location

Airport:

Trip Planner

Search our weather history database for the weather conditions in past years. The results will help you decide how hot, cold, wet, or windy it might be!

Date:

Astronomy

Feb. 26, 2014 Rise Set
Actual Time 6:44 AM CST 6:06 PM CST
Civil Twilight 6:19 AM CST 6:31 PM CST
Nautical Twilight 5:50 AM CST 7:00 PM CST
Astronomical Twilight 5:21 AM CST 7:29 PM CST
Moon 4:25 AM CST (2/26) 3:26 PM CST (2/26)
Length of Visible Light 12h 11m
Length of Day
11h 21m
Waning Crescent, 10% of the Moon is Illuminated
Feb 26
Waning Crescent
Mar 1
New
Mar 8
First Quarter
Mar 16
Full
Mar 23
Last Quarter

Hourly Weather History & Observations

Time (CST) Temp. Windchill Dew Point Humidity Pressure Visibility Wind Dir Wind Speed Gust Speed Precip Events Conditions
12:15 AM 42.8 °F - 39.2 °F 87% 30.16 in 5.0 mi Calm Calm - 0.01 in Rain Light Rain
12:56 AM 41.9 °F 40.0 °F 38.8 °F 89% 30.22 in 9.0 mi NE 3.5 mph - 0.02 in Rain Light Rain
1:56 AM 41.0 °F 33.9 °F 30.0 °F 65% 30.22 in 10.0 mi North 12.7 mph - 0.00 in   Partly Cloudy
2:56 AM 38.8 °F 30.0 °F 24.1 °F 55% 30.24 in 10.0 mi NNE 16.1 mph - N/A   Partly Cloudy
3:56 AM 37.9 °F 30.9 °F 24.1 °F 57% 30.25 in 10.0 mi NE 10.4 mph - N/A   Mostly Cloudy
4:56 AM 36.9 °F 27.8 °F 21.0 °F 53% 30.27 in 10.0 mi NE 15.0 mph - N/A   Overcast
5:56 AM 34.9 °F 26.2 °F 19.0 °F 52% 30.29 in 10.0 mi NNE 12.7 mph - N/A   Overcast
6:56 AM 32.9 °F 24.1 °F 19.0 °F 57% 30.30 in 10.0 mi NNE 11.5 mph - N/A   Partly Cloudy
7:56 AM 32.9 °F 24.7 °F 18.1 °F 55% 30.33 in 10.0 mi North 10.4 mph - N/A   Partly Cloudy
8:56 AM 34.9 °F 26.6 °F 17.1 °F 48% 30.34 in 10.0 mi NE 11.5 mph - N/A   Clear
9:56 AM 34.0 °F 24.6 °F 16.2 °F 48% 30.33 in 10.0 mi North 13.8 mph - N/A   Clear
10:56 AM 34.9 °F 28.3 °F 17.1 °F 48% 30.32 in 10.0 mi NNE 8.1 mph - N/A   Clear
11:56 AM 36.9 °F 31.4 °F 16.2 °F 43% 30.31 in 10.0 mi NNE 6.9 mph - N/A   Clear
12:56 PM 39.9 °F 36.7 °F 18.1 °F 42% 30.25 in 10.0 mi Variable 4.6 mph - N/A   Clear
1:56 PM 43.0 °F 36.8 °F 20.1 °F 40% 30.22 in 10.0 mi NNW 11.5 mph - N/A   Clear
2:56 PM 43.0 °F 38.2 °F 20.1 °F 40% 30.21 in 10.0 mi North 8.1 mph - N/A   Clear
3:56 PM 43.0 °F 37.2 °F 19.0 °F 38% 30.19 in 10.0 mi North 10.4 mph - N/A   Clear
4:56 PM 41.9 °F 40.0 °F 15.1 °F 34% 30.18 in 10.0 mi Variable 3.5 mph - N/A   Clear
5:56 PM 41.0 °F 38.0 °F 17.1 °F 38% 30.17 in 10.0 mi North 4.6 mph - N/A   Clear
6:56 PM 36.0 °F - 26.1 °F 67% 30.17 in 10.0 mi Calm Calm - N/A   Clear
7:56 PM 32.0 °F 28.7 °F 25.2 °F 76% 30.18 in 10.0 mi SW 3.5 mph - N/A   Clear
8:56 PM 30.0 °F - 27.1 °F 89% 30.19 in 10.0 mi Calm Calm - N/A   Clear
9:56 PM 26.1 °F - 22.1 °F 85% 30.21 in 10.0 mi Calm Calm - N/A   Clear
10:56 PM 26.1 °F - 23.0 °F 88% 30.22 in 10.0 mi Calm Calm - N/A   Clear
11:56 PM 24.1 °F - 21.0 °F 88% 30.20 in 10.0 mi Calm Calm - N/A   Clear